Terminal Aerodrome Forecast
Issued by NWS

Home | Current Version | Previous Version | Graphics & Text | Print | Product List | Glossary On
Versions: 1 2 3 4 5 6 7 8 9 10 11 12 13 14 15 16 17 18 19
046
FTUS43 KABR 191740
TAFPIR
TAF
KPIR 191740Z 1918/2018 17014KT P6SM SKC
     FM192300 12008KT P6SM SCT250
     FM200800 07007KT P6SM SCT250
     FM201400 04013KT P6SM BKN200=

USA.gov is the U.S. government's official web portal to all federal, state and local government web resources and services.